Find UniSat-3

NORAD ID: 28373 Int'l Des: 2004-025 Owner: ROGAU Country: I operational
LEOCIRCULARRETROGRADESSO

リアルタイム位置

3D地球を読み込み中...

UniSat-3について

説明を読み込み中...

次回通過

Passes for default location (London). Set your location on the main map for personalized predictions.

高度履歴

Loading altitude history...

軌道要素

1 28373U 04025H 26105.94023466 .00000203 00000-0 65006-4 0 9998
2 28373 98.6962 113.9091 0065255 179.3523 180.7766 14.49016275150035
Epoch: Apr 15, 2026 • Age: 6 hours

現在のステータス

高度 685.4 km
速度 7.54 km/s
衛星直下点 11.14°N, 26.83°E
打ち上げ日 Jun 29, 2004
運用期間 21.7 years
タイプ other

技術仕様

分類 Payload
質量 12.00 kg
乾燥質量 12.00 kg
総質量 12.00 kg
長さ 0.30 m
直径 0.20 m
スパン 0.30 m
形状 Oct Cyl
製造者 ROGAU/ROSAP
バスタイプ Unisat
フェーズステータス In Orbit
所有者/国 ROGAU/I

Most Searched